User: anonymous   Login
Location: Young's Pond
(41.2695°N, 72.7766°W)
Time: 10:50:00
(UTC-04:00)
Language:

Spot 4 - Orbit

View from above orbital plane
View from above orbital plane
View from above satellite
View from above satellite

Ground track
Ground track

The orbit data is extracted from the following two-line orbital elements,

1 25260U 98017A   17115.95108448 +.00000063 +00000-0 +26156-4 0  9997
2 25260 098.3503 198.5201 0014362 076.2423 284.0371 14.53472394994268
Epoch (UTC): 25 April 2017 22:49:33
Eccentricity: 0.0014362
inclination: 98.3503°
perigee height: 704 km
apogee height: 724 km
right ascension of ascending node: 198.5201°
argument of perigee: 76.2423°
revolutions per day: 14.53472394
mean anomaly at epoch: 284.0371°
orbit number at epoch: 99426

The dashed part of the orbit path shows where the satellite is in the earth's shadow,  

DLR